TimeEDT,TemperatureF,Dew PointF,Humidity,Sea Level PressureIn,VisibilityMPH,Wind Direction,Wind SpeedMPH,Gust SpeedMPH,PrecipitationIn,Events,Conditions,WindDirDegrees,DateUTC
12:54 AM,55.4,44.6,67,30.09,10.0,Calm,Calm,-,N/A,,Clear,0,2008-05-07 04:54:00
1:54 AM,55.0,44.1,67,30.03,10.0,Calm,Calm,-,N/A,,Clear,0,2008-05-07 05:54:00
2:54 AM,53.1,46.9,80,30.02,10.0,Calm,Calm,-,N/A,,Clear,0,2008-05-07 06:54:00
3:54 AM,53.1,46.9,80,30.01,10.0,Calm,Calm,-,N/A,,Partly Cloudy,0,2008-05-07 07:54:00
4:54 AM,53.1,46.9,80,30.01,10.0,Calm,Calm,-,N/A,,Partly Cloudy,0,2008-05-07 08:54:00
5:54 AM,51.1,46.9,86,30.03,10.0,SSE,3.5,-,N/A,,Scattered Clouds,160,2008-05-07 09:54:00
6:54 AM,51.8,44.6,76,30.09,10.0,Calm,Calm,-,N/A,,Clear,0,2008-05-07 10:54:00
7:54 AM,54.0,46.0,75,30.06,10.0,SE,3.5,-,N/A,,Clear,140,2008-05-07 11:54:00
8:54 AM,57.0,46.9,69,30.07,10.0,Calm,Calm,-,N/A,,Clear,0,2008-05-07 12:54:00
9:54 AM,63.0,46.0,54,30.04,10.0,South,5.8,-,N/A,,Clear,170,2008-05-07 13:54:00
10:54 AM,71.1,48.0,44,30.02,10.0,South,13.8,-,N/A,,Clear,190,2008-05-07 14:54:00
11:54 AM,73.0,48.9,42,30.01,10.0,South,12.7,17.3,N/A,,Clear,180,2008-05-07 15:54:00
12:54 PM,75.0,46.9,37,29.98,10.0,SSW,13.8,20.7,N/A,,Mostly Cloudy,200,2008-05-07 16:54:00
1:54 PM,72.0,46.9,41,29.98,10.0,SSW,12.7,-,N/A,,Mostly Cloudy,200,2008-05-07 17:54:00
2:54 PM,73.9,45.0,35,29.96,10.0,South,18.4,21.9,N/A,,Overcast,170,2008-05-07 18:54:00
3:54 PM,73.4,48.2,41,29.99,10.0,South,15.0,-,N/A,,Mostly Cloudy,190,2008-05-07 19:54:00
4:54 PM,73.9,48.0,40,29.92,10.0,SSW,13.8,-,N/A,,Partly Cloudy,200,2008-05-07 20:54:00
5:54 PM,73.9,52.0,46,29.92,10.0,South,13.8,-,N/A,,Overcast,180,2008-05-07 21:54:00
6:54 PM,72.0,53.1,51,29.92,10.0,South,9.2,-,N/A,,Mostly Cloudy,190,2008-05-07 22:54:00
7:54 PM,69.1,52.0,54,29.91,10.0,South,8.1,-,N/A,,Scattered Clouds,180,2008-05-07 23:54:00
8:54 PM,69.1,52.0,54,29.92,10.0,SSE,4.6,-,N/A,,Overcast,160,2008-05-08 00:54:00
9:54 PM,66.9,53.1,61,29.92,10.0,East,3.5,-,N/A,,Mostly Cloudy,100,2008-05-08 01:54:00
10:54 PM,64.9,53.1,65,29.91,10.0,Calm,Calm,-,N/A,,Mostly Cloudy,0,2008-05-08 02:54:00
11:54 PM,64.9,53.1,65,29.90,10.0,Calm,Calm,-,N/A,,Mostly Cloudy,0,2008-05-08 03:54:00